,,Stat5,,Stat1,,Stat2,,Stat3,,Stat4,,Wind1,,Wind1,
time,status,PA1M_AVG,status,PR1M_SUM,status,RH1M_AVG,status,SR1M_AVG,status,TA1M_AVG,status,W1dAve1m,status,W1sAve1m,
2000-07-17, 00:00:00,VALID,919.064,VALID,0,VALID,95.8179,VALID,-0.0509425,VALID,16.1408,VALID,196,VALID,2.6212,
2000-07-17, 00:01:00,VALID,919.043,VALID,0,VALID,95.851,VALID,-0.0679233,VALID,16.1735,VALID,195,VALID,2.37986,
2000-07-17, 00:02:00,VALID,919.036,VALID,0,VALID,96.483,VALID,-0.0679233,VALID,16.2217,VALID,196,VALID,2.57973,
2000-07-17, 00:03:00,VALID,918.618,VALID,0,VALID,96.7818,VALID,-0.0509425,VALID,16.3057,VALID,202,VALID,2.16047,
2000-07-17, 00:04:00,VALID,919.046,VALID,0,VALID,96.1905,VALID,-0.0849042,VALID,16.3087,VALID,198,VALID,1.68688,
2000-07-17, 00:05:00,VALID,919.061,VALID,0,VALID,97.0743,VALID,-0.0679233,VALID,16.3735,VALID,191,VALID,1.30945,
2000-07-17, 00:06:00,VALID,919.069,VALID,0,VALID,97.6516,VALID,-0.0679233,VALID,16.4933,VALID,188,VALID,1.31484,
2000-07-17, 00:07:00,VALID,919.071,VALID,0,VALID,97.5829,VALID,-0.0339617,VALID,16.5837,VALID,193,VALID,1.10737,
2000-07-17, 00:08:00,VALID,919.063,VALID,0,VALID,97.2523,VALID,-0.0849042,VALID,16.6352,VALID,208,VALID,1.27488,
2000-07-17, 00:09:00,VALID,919.067,VALID,0,VALID,96.4309,VALID,-0.0679233,VALID,16.635,VALID,221,VALID,1.87976,
2000-07-17, 00:10:00,VALID,919.07,VALID,0,VALID,95.5827,VALID,-0.0339617,VALID,16.5769,VALID,218,VALID,1.15913,
2000-07-17, 00:11:00,VALID,919.049,VALID,0,VALID,95.9362,VALID,-0.0339617,VALID,16.5474,VALID,218,VALID,1.0847,
2000-07-17, 00:12:00,VALID,918.994,VALID,0,VALID,97.0603,VALID,0.0169808,VALID,16.6014,VALID,211,VALID,0.908705,
2000-07-17, 00:13:00,VALID,918.994,VALID,0,VALID,97.2091,VALID,0.0679233,VALID,16.6111,VALID,209,VALID,0.719806,
2000-07-17, 00:14:00,VALID,918.955,VALID,0,VALID,96.6776,VALID,0.0509425,VALID,16.595,VALID,186,VALID,0.471429,
2000-07-17, 00:15:00,VALID,918.941,VALID,0,VALID,96.4499,VALID,0.0339617,VALID,16.5431,VALID,183,VALID,0.425781,
2000-07-17, 00:16:00,VALID,918.928,VALID,0,VALID,96.1816,VALID,0.0509425,VALID,16.5014,VALID,184,VALID,0.035473,
2000-07-17, 00:17:00,VALID,918.919,VALID,0,VALID,95.9311,VALID,0.0339617,VALID,16.4334,VALID,201,VALID,0.00801809,
2000-07-17, 00:18:00,VALID,918.905,VALID,0,VALID,96.1435,VALID,0.0679233,VALID,16.3981,VALID,199,VALID,0.632179,
2000-07-17, 00:19:00,VALID,918.896,VALID,0,VALID,95.9871,VALID,0.0509425,VALID,16.3589,VALID,197,VALID,0.491797,
2000-07-17, 00:20:00,VALID,918.886,VALID,0,VALID,95.8472,VALID,0.0169808,VALID,16.3073,VALID,193,VALID,0.597862,
2000-07-17, 00:21:00,VALID,918.866,VALID,0,VALID,95.7467,VALID,0.0509425,VALID,16.2588,VALID,194,VALID,0.603733,
2000-07-17, 00:22:00,VALID,918.84,VALID,0,VALID,95.8167,VALID,0.0509425,VALID,16.2367,VALID,195,VALID,0.659939,
2000-07-17, 00:23:00,VALID,918.826,VALID,0,VALID,95.5128,VALID,0.0339617,VALID,16.1945,VALID,189,VALID,0.555921,
2000-07-17, 00:24:00,VALID,918.808,VALID,0,VALID,95.4174,VALID,0.0169808,VALID,16.1402,VALID,177,VALID,0.600446,
2000-07-17, 00:25:00,VALID,918.802,VALID,0,VALID,95.8192,VALID,0.0509425,VALID,16.0847,VALID,172,VALID,0.506836,
2000-07-17, 00:26:00,VALID,918.784,VALID,0,VALID,96.4436,VALID,0.0339617,VALID,16.0593,VALID,169,VALID,0.357973,
2000-07-17, 00:27:00,VALID,918.793,VALID,0,VALID,96.9408,VALID,0.0169808,VALID,16.0593,VALID,169,VALID,0.0417352,
2000-07-17, 00:28:00,VALID,918.782,VALID,0,VALID,96.9942,VALID,0.0679233,VALID,16.0529,VALID,192,VALID,0,
2000-07-17, 00:29:00,VALID,918.773,VALID,0,VALID,97.2727,VALID,0.0169808,VALID,16.069,VALID,212,VALID,0,
2000-07-17, 00:30:00,VALID,918.76,VALID,0,VALID,97.471,VALID,0,VALID,16.1112,VALID,213,VALID,0,
2000-07-17, 00:31:00,VALID,918.765,VALID,0,VALID,97.4609,VALID,0.0169808,VALID,16.1663,VALID,213,VALID,0,
2000-07-17, 00:32:00,VALID,918.756,VALID,0,VALID,97.1163,VALID,0.0169808,VALID,16.1981,VALID,213,VALID,0,
2000-07-17, 00:33:00,VALID,918.756,VALID,0,VALID,96.6178,VALID,0.0169808,VALID,16.2141,VALID,213,VALID,0,
2000-07-17, 00:34:00,VALID,918.761,VALID,0,VALID,95.8955,VALID,0.0679233,VALID,16.2108,VALID,213,VALID,0,
2000-07-17, 00:35:00,VALID,918.765,VALID,0,VALID,95.4848,VALID,0.0849042,VALID,16.2108,VALID,213,VALID,0,
2000-07-17, 00:36:00,VALID,918.759,VALID,0,VALID,95.8167,VALID,0.0169808,VALID,16.2369,VALID,213,VALID,0,
2000-07-17, 00:37:00,VALID,918.761,VALID,0,VALID,95.5763,VALID,0.0679233,VALID,16.2496,VALID,236,VALID,0,
2000-07-17, 00:38:00,VALID,918.761,VALID,0,VALID,96.0036,VALID,0.0339617,VALID,16.2661,VALID,247,VALID,0,
2000-07-17, 00:39:00,VALID,918.749,VALID,0,VALID,96.1231,VALID,0.0169808,VALID,16.318,VALID,249,VALID,0,
2000-07-17, 00:40:00,VALID,918.736,VALID,0,VALID,95.673,VALID,0.0509425,VALID,16.3176,VALID,249,VALID,0,
2000-07-17, 00:41:00,VALID,918.717,VALID,0,VALID,95.1491,VALID,0.0339617,VALID,16.3049,VALID,249,VALID,0,
2000-07-17, 00:42:00,VALID,918.702,VALID,0,VALID,93.1743,VALID,0.0339617,VALID,16.1786,VALID,183,VALID,0,
2000-07-17, 00:43:00,VALID,918.694,VALID,0,VALID,92.7216,VALID,0.0169808,VALID,16.0014,VALID,99,VALID,0,
2000-07-17, 00:44:00,VALID,918.695,VALID,0,VALID,93.0459,VALID,0.0339617,VALID,15.7985,VALID,88,VALID,0,
2000-07-17, 00:45:00,VALID,918.698,VALID,0,VALID,94.451,VALID,0,VALID,15.6855,VALID,85,VALID,0,
2000-07-17, 00:46:00,VALID,918.695,VALID,0,VALID,95.5496,VALID,0.0169808,VALID,15.643,VALID,82,VALID,0,
2000-07-17, 00:47:00,VALID,918.687,VALID,0,VALID,96.4321,VALID,0.0509425,VALID,15.7075,VALID,80,VALID,0,
2000-07-17, 00:48:00,VALID,918.676,VALID,0,VALID,96.3889,VALID,0.0339617,VALID,15.7497,VALID,80,VALID,0,
2000-07-17, 00:49:00,VALID,918.652,VALID,0,VALID,96.6458,VALID,0,VALID,15.8179,VALID,80,VALID,0,
2000-07-17, 00:50:00,VALID,918.623,VALID,0,VALID,97.3896,VALID,0,VALID,15.9859,VALID,80,VALID,0,
2000-07-17, 00:51:00,VALID,918.616,VALID,0,VALID,97.2574,VALID,0.0169808,VALID,16.0533,VALID,80,VALID,0,
2000-07-17, 00:52:00,VALID,918.582,VALID,0,VALID,95.8485,VALID,0.0509425,VALID,15.9726,VALID,80,VALID,0,
2000-07-17, 00:53:00,VALID,918.57,VALID,0,VALID,96.8988,VALID,0,VALID,16.063,VALID,80,VALID,0,
2000-07-17, 00:54:00,VALID,918.556,VALID,0,VALID,97.3299,VALID,0.0169808,VALID,16.1598,VALID,80,VALID,0,
2000-07-17, 00:55:00,VALID,918.551,VALID,0,VALID,97.2777,VALID,0.0169808,VALID,16.2665,VALID,62,VALID,0.524023,
2000-07-17, 00:56:00,VALID,918.535,VALID,0,VALID,96.3864,VALID,-0.0169808,VALID,16.454,VALID,45,VALID,0.958133,
2000-07-17, 00:57:00,VALID,918.519,VALID,0,VALID,94.8528,VALID,-0.101885,VALID,16.5517,VALID,46,VALID,0.575452,
2000-07-17, 00:58:00,VALID,918.519,VALID,0,VALID,94.0008,VALID,-0.0509425,VALID,16.574,VALID,46,VALID,0.355263,
2000-07-17, 00:59:00,VALID,918.51,VALID,0,VALID,93.8114,VALID,-0.101885,VALID,16.5067,VALID,46,VALID,0,
2000-07-17, 01:00:00,VALID,918.488,VALID,0,VALID,94.1941,VALID,-0.0509425,VALID,16.4839,VALID,46,VALID,0,
2000-07-17, 01:01:00,VALID,918.481,VALID,0,VALID,94.2793,VALID,-0.101885,VALID,16.455,VALID,46,VALID,0,
2000-07-17, 01:02:00,VALID,918.465,VALID,0,VALID,94.4026,VALID,-0.0509425,VALID,16.4516,VALID,46,VALID,0,
2000-07-17, 01:03:00,VALID,918.449,VALID,0,VALID,94.4459,VALID,-0.0849042,VALID,16.4841,VALID,46,VALID,0,
2000-07-17, 01:04:00,VALID,918.424,VALID,0,VALID,93.9995,VALID,-0.0339617,VALID,16.4871,VALID,46,VALID,0,
2000-07-17, 01:05:00,VALID,918.404,VALID,0,VALID,93.5214,VALID,-0.0849042,VALID,16.4709,VALID,46,VALID,0,
2000-07-17, 01:06:00,VALID,918.381,VALID,0,VALID,93.5189,VALID,-0.0679233,VALID,16.4972,VALID,46,VALID,0.104096,
2000-07-17, 01:07:00,VALID,918.365,VALID,0,VALID,91.5263,VALID,-0.0679233,VALID,16.4901,VALID,46,VALID,0,
2000-07-17, 01:08:00,VALID,918.346,VALID,0,VALID,91.3241,VALID,-0.0679233,VALID,16.4453,VALID,46,VALID,0,
2000-07-17, 01:09:00,VALID,918.33,VALID,0,VALID,92.2994,VALID,-0.0849042,VALID,16.3866,VALID,69,VALID,0.237805,
2000-07-17, 01:10:00,VALID,918.308,VALID,0,VALID,92.3757,VALID,-0.0679233,VALID,16.2801,VALID,119,VALID,0.10773,
2000-07-17, 01:11:00,VALID,918.289,VALID,0,VALID,93.2061,VALID,-0.0679233,VALID,16.1707,VALID,119,VALID,0,
2000-07-17, 01:12:00,VALID,918.265,VALID,0,VALID,93.7541,VALID,-0.0679233,VALID,16.1061,VALID,162,VALID,0,
2000-07-17, 01:13:00,VALID,918.253,VALID,0,VALID,92.9289,VALID,-0.0509425,VALID,16.0026,VALID,186,VALID,0,
2000-07-17, 01:14:00,VALID,918.245,VALID,0,VALID,93.3409,VALID,-0.0679233,VALID,15.8903,VALID,185,VALID,0,
2000-07-17, 01:15:00,VALID,918.234,VALID,0,VALID,94.3861,VALID,-0.0339617,VALID,15.7832,VALID,180,VALID,0,
2000-07-17, 01:16:00,VALID,918.226,VALID,0,VALID,95.2279,VALID,-0.0339617,VALID,15.7706,VALID,177,VALID,0,
2000-07-17, 01:17:00,VALID,918.235,VALID,0,VALID,95.2088,VALID,-0.0339617,VALID,15.7577,VALID,181,VALID,0.249383,
2000-07-17, 01:18:00,VALID,918.225,VALID,0,VALID,95.0702,VALID,-0.0509425,VALID,15.7382,VALID,175,VALID,0.84185,
2000-07-17, 01:19:00,VALID,918.226,VALID,0,VALID,94.9355,VALID,-0.0679233,VALID,15.7057,VALID,191,VALID,0.419141,
2000-07-17, 01:20:00,VALID,918.23,VALID,0,VALID,95.0181,VALID,-0.0679233,VALID,15.6831,VALID,192,VALID,0,
2000-07-17, 01:21:00,VALID,918.218,VALID,0,VALID,95.0423,VALID,-0.101885,VALID,15.6706,VALID,191,VALID,0,
2000-07-17, 01:22:00,VALID,918.207,VALID,0,VALID,95.1046,VALID,-0.0679233,VALID,15.6514,VALID,191,VALID,0,
2000-07-17, 01:23:00,VALID,918.189,VALID,0,VALID,95.6615,VALID,-0.0679233,VALID,15.6774,VALID,191,VALID,0,
2000-07-17, 01:24:00,VALID,918.172,VALID,0,VALID,95.7722,VALID,-0.0169808,VALID,15.6968,VALID,191,VALID,0,
2000-07-17, 01:25:00,VALID,918.148,VALID,0,VALID,95.9082,VALID,-0.0169808,VALID,15.6899,VALID,154,VALID,0.0378906,
2000-07-17, 01:26:00,VALID,918.136,VALID,0,VALID,96.0672,VALID,-0.101885,VALID,15.7289,VALID,123,VALID,0.217147,
2000-07-17, 01:27:00,VALID,918.112,VALID,0,VALID,96.3113,VALID,-0.0509425,VALID,15.7773,VALID,113,VALID,0.365132,
2000-07-17, 01:28:00,VALID,918.107,VALID,0,VALID,96.4576,VALID,-0.0679233,VALID,15.8772,VALID,107,VALID,0.343339,
2000-07-17, 01:29:00,VALID,918.091,VALID,0,VALID,95.9947,VALID,-0.101885,VALID,15.929,VALID,107,VALID,0,
2000-07-17, 01:30:00,VALID,918.077,VALID,0,VALID,95.3881,VALID,-0.101885,VALID,15.9805,VALID,81,VALID,0,
2000-07-17, 01:31:00,VALID,918.081,VALID,0,VALID,94.8223,VALID,-0.0849042,VALID,16.042,VALID,78,VALID,0.00287829,
2000-07-17, 01:32:00,VALID,918.064,VALID,0,VALID,93.9779,VALID,-0.0679233,VALID,16.0969,VALID,63,VALID,1.28209,
2000-07-17, 01:33:00,VALID,918.054,VALID,0,VALID,93.3231,VALID,-0.0679233,VALID,16.1937,VALID,67,VALID,1.70833,
2000-07-17, 01:34:00,VALID,918.031,VALID,0,VALID,92.3337,VALID,-0.0679233,VALID,16.3711,VALID,72,VALID,1.46786,
2000-07-17, 01:35:00,VALID,918.019,VALID,0,VALID,91.2364,VALID,-0.0849042,VALID,16.4358,VALID,90,VALID,0.913876,
2000-07-17, 01:36:00,VALID,918,VALID,0,VALID,91.3012,VALID,-0.101885,VALID,16.4582,VALID,104,VALID,0.692356,
2000-07-17, 01:37:00,VALID,917.991,VALID,0,VALID,91.2923,VALID,-0.101885,VALID,16.4677,VALID,112,VALID,0.603252,
2000-07-17, 01:38:00,VALID,917.984,VALID,0,VALID,91.1702,VALID,-0.0849042,VALID,16.5038,VALID,142,VALID,0.692229,
2000-07-17, 01:39:00,VALID,917.977,VALID,0,VALID,91.2351,VALID,-0.0849042,VALID,16.5069,VALID,159,VALID,0.592035,
2000-07-17, 01:40:00,VALID,917.959,VALID,0,VALID,91.4525,VALID,-0.0849042,VALID,16.4841,VALID,180,VALID,0.865954,
2000-07-17, 01:41:00,VALID,917.949,VALID,0,VALID,91.4131,VALID,-0.0509425,VALID,16.4449,VALID,191,VALID,0.852385,
2000-07-17, 01:42:00,VALID,917.942,VALID,0,VALID,90.893,VALID,0.0339617,VALID,16.3898,VALID,201,VALID,0.791233,
2000-07-17, 01:43:00,VALID,917.933,VALID,0,VALID,91.3495,VALID,0,VALID,16.2764,VALID,200,VALID,0.814189,
2000-07-17, 01:44:00,VALID,917.938,VALID,0,VALID,92.4584,VALID,0.0169808,VALID,16.1638,VALID,192,VALID,1.02879,
2000-07-17, 01:45:00,VALID,917.941,VALID,0,VALID,92.8716,VALID,0,VALID,16.0763,VALID,193,VALID,0.818873,
2000-07-17, 01:46:00,VALID,917.943,VALID,0,VALID,92.9161,VALID,0.0169808,VALID,16.0184,VALID,197,VALID,0.86402,
2000-07-17, 01:47:00,VALID,917.95,VALID,0,VALID,93.4172,VALID,0.0509425,VALID,15.9437,VALID,191,VALID,0.826686,
2000-07-17, 01:48:00,VALID,917.957,VALID,0,VALID,94.0263,VALID,0,VALID,15.9123,VALID,187,VALID,0.846284,
2000-07-17, 01:49:00,VALID,917.954,VALID,0,VALID,94.2157,VALID,0.0339617,VALID,15.8697,VALID,188,VALID,0.821875,
2000-07-17, 01:50:00,VALID,917.943,VALID,0,VALID,94.7345,VALID,0,VALID,15.8604,VALID,193,VALID,0.858553,
2000-07-17, 01:51:00,VALID,917.937,VALID,0,VALID,94.9138,VALID,0.0509425,VALID,15.8467,VALID,194,VALID,0.80013,
2000-07-17, 01:52:00,VALID,917.918,VALID,0,VALID,94.2208,VALID,0.0339617,VALID,15.8146,VALID,197,VALID,0.737413,
2000-07-17, 01:53:00,VALID,917.918,VALID,0,VALID,94.1941,VALID,0.0169808,VALID,15.7666,VALID,207,VALID,0.167763,
2000-07-17, 01:54:00,VALID,917.9,VALID,0,VALID,94.3327,VALID,0,VALID,15.7057,VALID,226,VALID,0,
2000-07-17, 01:55:00,VALID,917.887,VALID,0,VALID,94.498,VALID,0,VALID,15.6343,VALID,230,VALID,0,
2000-07-17, 01:56:00,VALID,917.886,VALID,0,VALID,95.3207,VALID,-0.0339617,VALID,15.5963,VALID,226,VALID,0.386619,
2000-07-17, 01:57:00,VALID,917.889,VALID,0,VALID,95.6539,VALID,-0.0849042,VALID,15.5707,VALID,221,VALID,0.67023,
2000-07-17, 01:58:00,VALID,917.891,VALID,0,VALID,95.5967,VALID,-0.101885,VALID,15.5455,VALID,225,VALID,0.441612,
2000-07-17, 01:59:00,VALID,917.883,VALID,0,VALID,95.4861,VALID,-0.101885,VALID,15.5062,VALID,228,VALID,0.736914,
2000-07-17, 02:00:00,VALID,917.877,VALID,0,VALID,95.8408,VALID,-0.0509425,VALID,15.4967,VALID,227,VALID,0.839844,
2000-07-17, 02:01:00,VALID,917.862,VALID,0,VALID,96.4118,VALID,-0.0849042,VALID,15.487,VALID,223,VALID,0.869449,
2000-07-17, 02:02:00,VALID,917.86,VALID,0,VALID,96.4881,VALID,-0.101885,VALID,15.5029,VALID,212,VALID,0.332559,
2000-07-17, 02:03:00,VALID,917.86,VALID,0,VALID,96.4347,VALID,-0.101885,VALID,15.5197,VALID,210,VALID,0,
2000-07-17, 02:04:00,VALID,917.851,VALID,0,VALID,96.4983,VALID,-0.101885,VALID,15.5096,VALID,207,VALID,0,
2000-07-17, 02:05:00,VALID,917.84,VALID,0,VALID,96.2923,VALID,-0.101885,VALID,15.4967,VALID,211,VALID,0,
2000-07-17, 02:06:00,VALID,917.84,VALID,0,VALID,96.2312,VALID,-0.101885,VALID,15.4838,VALID,215,VALID,0.188978,
2000-07-17, 02:07:00,VALID,917.854,VALID,0,VALID,95.8828,VALID,-0.101885,VALID,15.4452,VALID,217,VALID,0.541174,
2000-07-17, 02:08:00,VALID,917.848,VALID,0,VALID,95.9489,VALID,-0.101885,VALID,15.4097,VALID,214,VALID,0.818873,
2000-07-17, 02:09:00,VALID,917.853,VALID,0,VALID,96.5211,VALID,-0.0679233,VALID,15.4033,VALID,212,VALID,0.664444,
2000-07-17, 02:10:00,VALID,917.833,VALID,0,VALID,96.1943,VALID,-0.101885,VALID,15.355,VALID,217,VALID,0.733553,
2000-07-17, 02:11:00,VALID,917.819,VALID,0,VALID,96.2287,VALID,-0.0679233,VALID,15.2994,VALID,217,VALID,0.76398,
2000-07-17, 02:12:00,VALID,917.824,VALID,0,VALID,96.6343,VALID,0,VALID,15.2855,VALID,222,VALID,0.468316,
2000-07-17, 02:13:00,VALID,917.831,VALID,0,VALID,96.8912,VALID,0,VALID,15.2988,VALID,217,VALID,0.655828,
2000-07-17, 02:14:00,VALID,917.849,VALID,0,VALID,97.3223,VALID,0.0169808,VALID,15.3218,VALID,217,VALID,0.501786,
2000-07-17, 02:15:00,VALID,917.858,VALID,0,VALID,97.8665,VALID,0,VALID,15.3765,VALID,216,VALID,0.548314,
2000-07-17, 02:16:00,VALID,917.862,VALID,0,VALID,98.0509,VALID,0,VALID,15.4315,VALID,216,VALID,0.442145,
2000-07-17, 02:17:00,VALID,917.855,VALID,0,VALID,98.4209,VALID,0.0339617,VALID,15.5023,VALID,216,VALID,0.546258,
2000-07-17, 02:18:00,VALID,917.847,VALID,0,VALID,98.4451,VALID,0,VALID,15.5669,VALID,213,VALID,0.395059,
2000-07-17, 02:19:00,VALID,917.816,VALID,0,VALID,98.1106,VALID,-0.0169808,VALID,15.5344,VALID,208,VALID,0.0324219,
2000-07-17, 02:20:00,VALID,917.798,VALID,0,VALID,98.2416,VALID,0,VALID,15.5249,VALID,187,VALID,0.562294,
2000-07-17, 02:21:00,VALID,917.773,VALID,0,VALID,98.4018,VALID,0,VALID,15.5572,VALID,185,VALID,0.656901,
2000-07-17, 02:22:00,VALID,917.753,VALID,0,VALID,98.4349,VALID,0,VALID,15.5796,VALID,184,VALID,0.570964,
2000-07-17, 02:23:00,VALID,917.741,VALID,0,VALID,98.2747,VALID,0.0169808,VALID,15.5701,VALID,184,VALID,0.574836,
2000-07-17, 02:24:00,VALID,917.75,VALID,0,VALID,97.6834,VALID,0,VALID,15.4761,VALID,179,VALID,0.63058,
2000-07-17, 02:25:00,VALID,917.755,VALID,0,VALID,97.1112,VALID,0.0339617,VALID,15.3248,VALID,171,VALID,0.677734,
2000-07-17, 02:26:00,VALID,917.758,VALID,0,VALID,97.883,VALID,-0.0169808,VALID,15.3285,VALID,163,VALID,0.827123,
2000-07-17, 02:27:00,VALID,917.752,VALID,0,VALID,97.3871,VALID,-0.101885,VALID,15.2613,VALID,156,VALID,0.635691,
2000-07-17, 02:28:00,VALID,917.753,VALID,0,VALID,97.4647,VALID,-0.101885,VALID,15.1935,VALID,154,VALID,0.757401,
2000-07-17, 02:29:00,VALID,917.729,VALID,0,VALID,98.1984,VALID,-0.0509425,VALID,15.2512,VALID,155,VALID,0.720117,
2000-07-17, 02:30:00,VALID,917.725,VALID,0,VALID,98.3421,VALID,-0.0679233,VALID,15.2869,VALID,156,VALID,0.516859,
2000-07-17, 02:31:00,VALID,917.723,VALID,0,VALID,98.2887,VALID,-0.101885,VALID,15.3066,VALID,169,VALID,0.324836,
2000-07-17, 02:32:00,VALID,917.714,VALID,0,VALID,98.014,VALID,-0.0679233,VALID,15.2618,VALID,174,VALID,0.367188,
2000-07-17, 02:33:00,VALID,917.722,VALID,0,VALID,97.8474,VALID,-0.0849042,VALID,15.2094,VALID,174,VALID,0.277561,
2000-07-17, 02:34:00,VALID,917.721,VALID,0,VALID,97.9873,VALID,-0.0679233,VALID,15.2034,VALID,180,VALID,0,
2000-07-17, 02:35:00,VALID,917.734,VALID,0,VALID,98.4921,VALID,-0.0849042,VALID,15.258,VALID,199,VALID,0,
2000-07-17, 02:36:00,VALID,917.742,VALID,0,VALID,98.6854,VALID,-0.101885,VALID,15.3325,VALID,206,VALID,0,
2000-07-17, 02:37:00,VALID,917.759,VALID,0,VALID,98.66,VALID,-0.101885,VALID,15.3811,VALID,208,VALID,0,
2000-07-17, 02:38:00,VALID,917.769,VALID,0,VALID,98.4629,VALID,-0.0679233,VALID,15.3649,VALID,218,VALID,0,
2000-07-17, 02:39:00,VALID,917.768,VALID,0,VALID,98.2925,VALID,-0.0849042,VALID,15.3262,VALID,214,VALID,0.151867,
2000-07-17, 02:40:00,VALID,917.77,VALID,0,VALID,98.0433,VALID,-0.0849042,VALID,15.2738,VALID,215,VALID,0.794408,
2000-07-17, 02:41:00,VALID,917.761,VALID,0,VALID,97.953,VALID,-0.0509425,VALID,15.2316,VALID,224,VALID,0.880345,
2000-07-17, 02:42:00,VALID,917.755,VALID,0,VALID,98.4603,VALID,-0.0339617,VALID,15.2895,VALID,222,VALID,0.863498,
2000-07-17, 02:43:00,VALID,917.742,VALID,0,VALID,98.4247,VALID,0,VALID,15.3347,VALID,222,VALID,0.669341,
2000-07-17, 02:44:00,VALID,917.735,VALID,0,VALID,98.2518,VALID,0,VALID,15.3482,VALID,216,VALID,0.699554,
2000-07-17, 02:45:00,VALID,917.717,VALID,0,VALID,98.1933,VALID,-0.0169808,VALID,15.3186,VALID,205,VALID,0.747122,
2000-07-17, 02:46:00,VALID,917.705,VALID,0,VALID,98.3167,VALID,-0.0509425,VALID,15.3642,VALID,200,VALID,0.528083,
2000-07-17, 02:47:00,VALID,917.695,VALID,0,VALID,98.3904,VALID,-0.0169808,VALID,15.3898,VALID,204,VALID,0.548314,
2000-07-17, 02:48:00,VALID,917.677,VALID,0,VALID,98.4654,VALID,-0.0849042,VALID,15.4354,VALID,209,VALID,0.594806,
2000-07-17, 02:49:00,VALID,917.67,VALID,0,VALID,98.1908,VALID,-0.0679233,VALID,15.4221,VALID,216,VALID,0.482031,
2000-07-17, 02:50:00,VALID,917.66,VALID,0,VALID,98.1132,VALID,-0.0509425,VALID,15.4061,VALID,216,VALID,0.515625,
2000-07-17, 02:51:00,VALID,917.658,VALID,0,VALID,98.0344,VALID,0,VALID,15.3928,VALID,216,VALID,0.472005,
2000-07-17, 02:52:00,VALID,917.637,VALID,0,VALID,98.1577,VALID,-0.0339617,VALID,15.3896,VALID,216,VALID,0.387587,
2000-07-17, 02:53:00,VALID,917.613,VALID,0,VALID,98.454,VALID,0,VALID,15.4608,VALID,215,VALID,0.323191,
2000-07-17, 02:54:00,VALID,917.614,VALID,0,VALID,98.543,VALID,0,VALID,15.5156,VALID,215,VALID,0.355804,
2000-07-17, 02:55:00,VALID,917.599,VALID,0,VALID,98.6409,VALID,0,VALID,15.5671,VALID,215,VALID,0.417578,
2000-07-17, 02:56:00,VALID,917.609,VALID,0,VALID,98.5939,VALID,-0.0339617,VALID,15.6093,VALID,214,VALID,0.486579,
2000-07-17, 02:57:00,VALID,917.584,VALID,0,VALID,98.3357,VALID,-0.0169808,VALID,15.6125,VALID,213,VALID,0.437911,
2000-07-17, 02:58:00,VALID,917.573,VALID,0,VALID,98.3929,VALID,-0.0339617,VALID,15.6248,VALID,213,VALID,0.511102,
2000-07-17, 02:59:00,VALID,917.573,VALID,0,VALID,98.4769,VALID,-0.0339617,VALID,15.6996,VALID,213,VALID,0.536523,
2000-07-17, 03:00:00,VALID,917.562,VALID,0,VALID,98.412,VALID,0,VALID,15.748,VALID,213,VALID,0.412007,
2000-07-17, 03:01:00,VALID,917.553,VALID,0,VALID,98.3027,VALID,-0.0169808,VALID,15.7898,VALID,213,VALID,0.336965,
2000-07-17, 03:02:00,VALID,917.565,VALID,0,VALID,97.939,VALID,-0.0339617,VALID,15.8189,VALID,213,VALID,0.351774,
2000-07-17, 03:03:00,VALID,917.538,VALID,0,VALID,97.2777,VALID,-0.0339617,VALID,15.7832,VALID,209,VALID,0.414063,
2000-07-17, 03:04:00,VALID,917.533,VALID,0,VALID,97.0349,VALID,-0.0339617,VALID,15.748,VALID,203,VALID,0.590402,
2000-07-17, 03:05:00,VALID,917.51,VALID,0,VALID,97.0005,VALID,0,VALID,15.719,VALID,188,VALID,0.610677,
2000-07-17, 03:06:00,VALID,917.51,VALID,0,VALID,96.8416,VALID,0,VALID,15.6607,VALID,186,VALID,0.562078,
2000-07-17, 03:07:00,VALID,917.501,VALID,0,VALID,96.8505,VALID,0,VALID,15.6091,VALID,198,VALID,0.594172,
2000-07-17, 03:08:00,VALID,917.505,VALID,0,VALID,96.8162,VALID,-0.0169808,VALID,15.5608,VALID,211,VALID,0.517681,
2000-07-17, 03:09:00,VALID,917.49,VALID,0,VALID,96.6508,VALID,-0.0339617,VALID,15.5284,VALID,228,VALID,0.596227,
2000-07-17, 03:10:00,VALID,917.494,VALID,0,VALID,96.4131,VALID,-0.0339617,VALID,15.4606,VALID,215,VALID,0.496505,
2000-07-17, 03:11:00,VALID,917.485,VALID,0,VALID,96.6686,VALID,-0.0339617,VALID,15.4319,VALID,212,VALID,0.428248,
2000-07-17, 03:12:00,VALID,917.48,VALID,0,VALID,97.0629,VALID,-0.0679233,VALID,15.4285,VALID,208,VALID,0.274957,
2000-07-17, 03:13:00,VALID,917.466,VALID,0,VALID,97.0629,VALID,-0.0509425,VALID,15.4089,VALID,200,VALID,0.35663,
2000-07-17, 03:14:00,VALID,917.457,VALID,0,VALID,97.129,VALID,-0.0169808,VALID,15.3829,VALID,200,VALID,0.352679,
2000-07-17, 03:15:00,VALID,917.445,VALID,0,VALID,96.7627,VALID,-0.0169808,VALID,15.3412,VALID,179,VALID,0.399465,
2000-07-17, 03:16:00,VALID,917.449,VALID,0,VALID,95.1923,VALID,-0.0169808,VALID,15.1768,VALID,168,VALID,0.381968,
2000-07-17, 03:17:00,VALID,917.45,VALID,0,VALID,96.0621,VALID,-0.0339617,VALID,15.1022,VALID,163,VALID,0.706826,
2000-07-17, 03:18:00,VALID,917.437,VALID,0,VALID,97.4939,VALID,-0.0339617,VALID,15.154,VALID,160,VALID,0.876267,
2000-07-17, 03:19:00,VALID,917.412,VALID,0,VALID,98.1895,VALID,-0.0509425,VALID,15.2575,VALID,179,VALID,0.563867,
2000-07-17, 03:20:00,VALID,917.412,VALID,0,VALID,97.9504,VALID,-0.0509425,VALID,15.2639,VALID,208,VALID,0.0567434,
2000-07-17, 03:21:00,VALID,917.383,VALID,0,VALID,97.8614,VALID,-0.0509425,VALID,15.2607,VALID,208,VALID,0.370009,
2000-07-17, 03:22:00,VALID,917.359,VALID,0,VALID,97.4647,VALID,-0.0509425,VALID,15.2447,VALID,198,VALID,0.800347,
2000-07-17, 03:23:00,VALID,917.344,VALID,0,VALID,97.2167,VALID,-0.0509425,VALID,15.1802,VALID,186,VALID,0.662212,
2000-07-17, 03:24:00,VALID,917.336,VALID,0,VALID,97.6389,VALID,-0.0169808,VALID,15.1958,VALID,194,VALID,0.598214,
2000-07-17, 03:25:00,VALID,917.336,VALID,0,VALID,97.0171,VALID,-0.0169808,VALID,15.1899,VALID,196,VALID,0,
2000-07-17, 03:26:00,VALID,917.346,VALID,0,VALID,97.0158,VALID,-0.0339617,VALID,15.1994,VALID,196,VALID,0.318309,
2000-07-17, 03:27:00,VALID,917.345,VALID,0,VALID,97.5677,VALID,-0.0509425,VALID,15.2901,VALID,196,VALID,0.581414,
2000-07-17, 03:28:00,VALID,917.335,VALID,0,VALID,96.8034,VALID,-0.0339617,VALID,15.274,VALID,196,VALID,0.288857,
2000-07-17, 03:29:00,VALID,917.344,VALID,0,VALID,96.5606,VALID,-0.0169808,VALID,15.2349,VALID,199,VALID,0,
2000-07-17, 03:30:00,VALID,917.352,VALID,0,VALID,96.633,VALID,-0.0169808,VALID,15.2254,VALID,206,VALID,0,
2000-07-17, 03:31:00,VALID,917.355,VALID,0,VALID,97.0133,VALID,0,VALID,15.2187,VALID,219,VALID,0,
2000-07-17, 03:32:00,VALID,917.359,VALID,0,VALID,97.5855,VALID,0,VALID,15.2895,VALID,215,VALID,0,
2000-07-17, 03:33:00,VALID,917.364,VALID,0,VALID,97.1163,VALID,-0.0509425,VALID,15.2734,VALID,207,VALID,0.233507,
2000-07-17, 03:34:00,VALID,917.353,VALID,0,VALID,96.806,VALID,-0.0169808,VALID,15.2313,VALID,189,VALID,0.792857,